Regional Weather Roundup
Issued by NWS Memphis, TN

Home | Current Version | Previous Version | Text Only | Print | Product List | Glossary On
Versions: 1 2 3 4 5 6 7 8 9 10 11 12 13 14 15 16 17 18 19 20 21 22 23 24 25 26 27 28 29 30 31 32 33 34 35 36 37 38 39 40 41 42 43 44 45 46 47 48 49 50
000
ASUS44 KMEG 302100
RWRMEG
MEMPHIS CWA HOURLY WEATHER ROUNDUP
NATIONAL WEATHER SERVICE MEMPHIS TN
400 PM CDT MON MAR 30 2015

...WEST TENNESSEE...

CITY           SKY/WX    TMP DP  RH WIND       PRES   REMARKS
MEMPHIS INTL   SUNNY     72  38  29 CALM      30.14F
NWS MEMPHIS      N/A    N/A N/A N/A MISG        N/A
JACKSON        SUNNY     70  32  24 VRB3      30.14F
LEXINGTON      SUNNY     70  23  17 NW8       30.13F
SAVANNAH       SUNNY     68  32  26 CALM      30.14F
DYERSBURG      SUNNY     66  30  26 NW7       30.16F
UNION CITY     SUNNY     66  39  37 S6        30.14F
PARIS          SUNNY     64  28  25 CALM      30.13F


...EASTERN ARKANSAS...

CITY           SKY/WX    TMP DP  RH WIND       PRES   REMARKS
JONESBORO      SUNNY     65  37  35 S5        30.15F
WEST MEMPHIS   SUNNY     69  38  32 S8        30.14F
BATESVILLE     SUNNY     70  39  32 E8        30.13F
BLYTHEVILLE    SUNNY     68  30  24 SW7       30.15F
STUTTGART      SUNNY     73  46  38 SW6       30.16F
PINE BLUFF     SUNNY     73  50  44 E7        30.14F
MONTICELLO     SUNNY     76  49  38 W5        30.12F


...NORTH MISSISSIPPI...

CITY           SKY/WX    TMP DP  RH WIND       PRES   REMARKS
TUPELO         SUNNY     72  44  36 CALM      30.14F
TUNICA         SUNNY     70  45  40 CALM      30.15F
GREENWOOD      SUNNY     77  47  34 CALM      30.11F
COLUMBUS       SUNNY     76  42  30 NW9       30.12F
STARKVILLE     FAIR      75  48  38 W5        30.12F
GOLDEN TRIANGL MOSUNNY   75  50  41 NW3       30.13F


...SOUTHEAST MISSOURI...

CITY           SKY/WX    TMP DP  RH WIND       PRES   REMARKS
WEST PLAINS    SUNNY     67  29  24 SW6G16    30.12F
POPLAR BLUFF   SUNNY     66  36  32 S12       30.12F
CAPE GIRARDEAU SUNNY     65  31  28 W8        30.12F


...NORTHWEST ALABAMA...

CITY           SKY/WX    TMP DP  RH WIND       PRES   REMARKS
MUSCLE SHOALS  SUNNY     69  40  34 SW9       30.14F


...MIDDLE TENNESSEE...

CITY           SKY/WX    TMP DP  RH WIND       PRES   REMARKS
NASHVILLE      MOSUNNY   68  23  18 CALM      30.12F
CLARKSVILLE    SUNNY     66  24  20 NW10      30.13F
COLUMBIA       SUNNY     70  36  28 SW5       30.11F


...WESTERN KENTUCKY...

CITY           SKY/WX    TMP DP  RH WIND       PRES   REMARKS
PADUCAH        SUNNY     66  28  24 S7        30.12F


...CENTRAL ARKANSAS...

CITY           SKY/WX    TMP DP  RH WIND       PRES   REMARKS
LITTLE ROCK    SUNNY     73  46  38 SE8       30.14F


SKY/WX REPORTED AS FAIR MEANS FEW OR NO CLOUDS BELOW
12 THOUSAND FEET.




USA.gov is the U.S. government's official web portal to all federal, state and local government web resources and services.